Other Surface Observations
Issued by NWS Charleston, SC

Home | Current Version | Previous Version | Text Only | Print | Product List | Glossary On
Versions: 1 2 3 4 5 6 7 8 9 10 11 12 13 14 15 16 17 18 19 20 21 22 23 24 25 26 27 28 29 30 31 32 33 34 35 36 37 38 39 40 41 42 43 44 45 46 47 48 49 50
000
SXUS52 KCHS 251912
OSOCHS

Marine Observations
National Weather Service Charleston SC
300 PM EDT WED APR 25 2018

...Downtown Charleston and Harbor...

CITY           SKY/WX    TMP DP  RH WIND       PRES   REMARKS
Waterfront Prk   N/A     75  55  49 W6G13     29.64F

...Lake Moultrie...

CITY           SKY/WX    TMP DP  RH WIND       PRES   REMARKS
Pinopolis        N/A     72  61  68 VRB2      29.72F

...Lake and Supplemental Coastal Observations...

STATION/POSITION TIME  TEMP    WIND        PRES    WAVE   SWELL
                       AIR SEA DIR/SP/G            HT/PER HT/PER/DIR
                 (UTC) (F)     (DEG/KT/KT) (MB)    (FT/S) (FT/S/D)
Fort Pulaski     1842   74 67  270/ 10/ 13 1010.1F
Sapelo Island    1800   76     270/ 12     1011.0
Winyah Bay       1745   74     260/  8     1008.0
Lake Murray      1820   71     250/  6/  8 1008.1F
ACE Basin NERRS  1745   76     350/  3       N/A


...C-MAN and Buoy Observations...

STATION/POSITION TIME  TEMP    WIND        PRES    WAVE   SWELL
                       AIR SEA DIR/SP/G            HT/PER HT/PER/DIR
                 (UTC) (F)     (DEG/KT/KT) (MB)    (FT/S) (FT/S/D)
Buoy 41004       1850      69  240/ 17/ 21 1009.2F   6/10   5/100/10
Buoy 41008       1850   67 66  170/ 12/ 16 1010.1F   3/ 9   3/ 70/ 9
Folly Beach CMAN 1900   67     210/ 16/ 20 1009.6F
Pritchards Islan NOT AVBL
Capers NS Buoy   1808   66 66  230/ 16/ 23 1009.4F
Fripp NS Buoy    1808   66 66  210/ 14/ 19 1009.4F
5E St. Marys GA  1900      69                N/A     3/ 8


STATION/POSITION TIME  TEMP    WIND        PRES    WAVE   SWELL
                       AIR SEA DIR/SP/G            HT/PER HT/PER/DIR
                 (UTC) (F)     (DEG/KT/KT) (MB)    (FT/S) (FT/S/D)
Frying Pan Buoy  1850   68 71  230/ 19/ 25 1008.1F   6/10   5/120/10
Buoy 41025       1900   70 70  220/ 14/ 17 1006.8
Cape Lookout NC  1900          200/ 15/ 17 1007.0F
Buoy 41002       1900   72 73  260/ 12/ 16 1009.4
Buoy 41010       1850   74 75  270/ 12/ 16 1012.8F   5/ 9   3/ 70/ 9
St Augustine FL  1900   77 69  270/  7/  9 1012.0F

$$




USA.gov is the U.S. government's official web portal to all federal, state and local government web resources and services.